DW0333 Tranby-Lier NO current weather conditions

sailwx.info

Wind from 045 at 0 knots

Air temperature 10.0° C
Dewpoint 9.4° C

Last reported at 2014-Aug-23 06:43 UTC.
Time now 2014-Aug-23 07:34 UTC

Location: N 59°50' E 010°17'.
View on Google Maps.

See reports from other nearby stations

  
Tides and Currents Weather Stations Pressure Air Temp Water Temp Dewpoint Dewpoint Depression Visibility Wind Speed Wind Dir Waves Ship Positions
date/time (UTC)wind fromknots sea level pressurealtimeterstation pressurevisibilityair tempwater tempwave heightnotes
2014-Aug-23 06:43 045 0 10.0
2014-Aug-23 06:28 069 0 10.0
2014-Aug-23 06:12 013 9.4
2014-Aug-23 05:58 350 9.4
2014-Aug-23 05:43 343 9.4
2014-Aug-23 05:26 343 0 8.9
2014-Aug-23 05:12 340 8.9
2014-Aug-23 04:56 007 0 8.9
2014-Aug-23 04:41 008 8.3
2014-Aug-23 04:26 360 8.3
2014-Aug-23 04:11 354 0 8.3
2014-Aug-23 03:56 038 0 8.3
2014-Aug-23 03:39 038 8.3
2014-Aug-23 03:25 038 8.9
2014-Aug-23 03:09 038 8.9
2014-Aug-23 02:55 038 0 8.9
2014-Aug-23 02:39 044 0 8.9
2014-Aug-23 02:24 046 8.9
2014-Aug-23 02:09 046 8.9
2014-Aug-23 01:54 046 8.9
2014-Aug-23 01:38 049 0 8.9
2014-Aug-23 01:23 054 0 8.9
2014-Aug-23 01:07 058 8.9
2014-Aug-23 00:52 055 9.4
2014-Aug-23 00:37 055 9.4
2014-Aug-23 00:23 057 9.4
2014-Aug-23 00:07 057 9.4
2014-Aug-22 23:52 057 8.9
2014-Aug-22 23:36 057 0 8.9
2014-Aug-22 23:21 057 8.9
2014-Aug-22 23:06 057 0 8.9
2014-Aug-22 22:51 057 9.4
2014-Aug-22 22:36 057 0 9.4
2014-Aug-22 22:22 057 0 9.4
2014-Aug-22 22:04 058 0 9.4
2014-Aug-22 21:49 059 0 9.4
2014-Aug-22 21:35 080 1 9.4
2014-Aug-22 21:19 093 2 10.0
2014-Aug-22 21:04 077 2 10.0
2014-Aug-22 20:48 055 1 10.0
2014-Aug-22 20:33 052 1 10.0
2014-Aug-22 20:18 101 1 10.0
2014-Aug-22 20:04 063 1 10.0
2014-Aug-22 19:48 105 0 10.0
2014-Aug-22 19:33 062 0 10.0
2014-Aug-22 19:17 065 0 10.0
2014-Aug-22 19:02 052 1 10.0
2014-Aug-22 18:48 067 1 10.0
2014-Aug-22 18:33 074 2 10.0
2014-Aug-22 18:18 042 1 10.6
2014-Aug-22 18:01 048 2 10.6
2014-Aug-22 17:46 096 2 11.1
2014-Aug-22 17:32 050 1 11.1
2014-Aug-22 17:17 145 1 12.2
2014-Aug-22 17:01 200 2 12.2
2014-Aug-22 16:47 139 1 11.1
2014-Aug-22 16:30 086 0 11.1
2014-Aug-22 16:15 091 1 10.6
2014-Aug-22 15:59 097 4 11.1
2014-Aug-22 15:45 107 2 11.7
2014-Aug-22 15:30 094 3 11.7
2014-Aug-22 15:14 105 4 11.7
2014-Aug-22 14:58 157 5 12.8
2014-Aug-22 14:43 130 5 12.8
2014-Aug-22 14:29 098 4 12.2
2014-Aug-22 14:13 139 5 12.2
2014-Aug-22 13:58 132 5 12.2
2014-Aug-22 13:42 199 4 13.3
2014-Aug-22 13:27 120 5 12.8
2014-Aug-22 13:12 151 5 12.8
2014-Aug-22 12:57 080 5 12.8
2014-Aug-22 12:43 099 6 13.9
2014-Aug-22 12:26 148 5 13.9
2014-Aug-22 12:11 159 6 12.2
2014-Aug-22 11:56 099 5 12.8
2014-Aug-22 11:41 167 5 14.4
2014-Aug-22 11:28 094 5 15.6
2014-Aug-22 11:11 113 6 13.9
2014-Aug-22 10:55 135 4 14.4
2014-Aug-22 10:40 136 5 15.0
2014-Aug-22 10:25 124 5 13.3
2014-Aug-22 10:10 119 2 15.0
2014-Aug-22 09:55 132 4 13.9
2014-Aug-22 09:39 066 3 14.4
2014-Aug-22 09:24 121 4 13.9
2014-Aug-22 09:09 109 3 13.3
2014-Aug-22 08:54 146 2 13.3
2014-Aug-22 08:38 107 3 12.8
2014-Aug-22 08:23 129 2 12.2
2014-Aug-22 08:07 156 3 11.7
2014-Aug-22 07:53 102 2 11.7
2014-Aug-22 07:37 139 1 11.1
2014-Aug-22 07:22 127 0 10.6
2014-Aug-22 07:07 069 1 10.6
2014-Aug-22 06:51 071 1 10.0
2014-Aug-22 06:37 097 0 10.0
2014-Aug-22 06:21 042 0 10.0
2014-Aug-22 06:08 028 0 8.9
2014-Aug-22 05:52 028 0 8.9
2014-Aug-22 05:35 028 8.9
2014-Aug-22 05:19 028 8.9
2014-Aug-22 05:04 028 8.3
2014-Aug-22 04:50 028 8.3
2014-Aug-22 04:34 028 8.3
2014-Aug-22 04:18 028 8.3
2014-Aug-22 04:04 028 8.3
2014-Aug-22 03:49 028 8.3
2014-Aug-22 03:33 028 8.3
2014-Aug-22 03:17 028 8.9
2014-Aug-22 03:03 028 8.9
2014-Aug-22 02:48 028 8.9
2014-Aug-22 02:33 028 0 9.4
2014-Aug-22 02:17 028 0 9.4
2014-Aug-22 02:03 028 0 8.9
2014-Aug-22 01:46 028 0 8.9
2014-Aug-22 01:31 028 0 8.9
2014-Aug-22 01:16 028 0 8.9
2014-Aug-22 01:01 028 0 8.9
2014-Aug-22 00:48 028 0 8.9
2014-Aug-22 00:32 047 0 9.4
2014-Aug-22 00:16 034 1 8.9
2014-Aug-22 00:01 040 0 9.4
2014-Aug-21 23:45 040 1 9.4
2014-Aug-21 23:29 030 1 9.4
2014-Aug-21 23:15 030 1 9.4
2014-Aug-21 22:59 042 1 9.4
2014-Aug-21 22:44 044 1 9.4
2014-Aug-21 22:28 054 0 10.0
2014-Aug-21 22:13 047 0 10.6
2014-Aug-21 21:58 047 0 10.6
2014-Aug-21 21:43 046 11.1
2014-Aug-21 21:28 046 0 11.1
2014-Aug-21 21:13 037 1 10.6
2014-Aug-21 20:58 031 2 10.0
2014-Aug-21 20:43 059 1 11.1
2014-Aug-21 20:27 054 1 11.7
2014-Aug-21 20:11 103 2 11.7
2014-Aug-21 19:58 125 2 11.7
2014-Aug-21 19:42 090 2 11.7
2014-Aug-21 19:26 124 2 11.7
2014-Aug-21 19:11 119 2 12.2
2014-Aug-21 18:56 113 2 12.2
2014-Aug-21 18:41 130 2 12.2
2014-Aug-21 18:25 079 2 12.2
2014-Aug-21 18:09 065 2 12.8
2014-Aug-21 17:54 102 3 12.8
2014-Aug-21 17:39 110 2 12.8
2014-Aug-21 17:24 117 2 13.3
2014-Aug-21 17:08 069 2 12.2
2014-Aug-21 16:53 066 4 11.7
2014-Aug-21 16:38 117 2 11.1
2014-Aug-21 16:23 148 4 11.7
2014-Aug-21 16:09 131 4 11.7
2014-Aug-21 15:53 120 4 12.8
2014-Aug-21 15:38 131 3 13.9
2014-Aug-21 15:22 143 4 14.4
2014-Aug-21 15:07 159 3 15.0
2014-Aug-21 14:52 175 3 17.2
2014-Aug-21 14:38 148 3 16.7
2014-Aug-21 14:22 175 3 16.7
2014-Aug-21 14:06 113 2 16.7
2014-Aug-21 13:51 132 2 14.4
2014-Aug-21 13:36 126 1 14.4
2014-Aug-21 13:21 144 1 14.4
2014-Aug-21 13:07 133 3 15.0
2014-Aug-21 12:50 202 2 13.9
2014-Aug-21 12:34 284 1 15.0
2014-Aug-21 12:19 168 1 15.0
2014-Aug-21 12:05 207 2 13.9
2014-Aug-21 11:49 113 1 15.6
2014-Aug-21 11:34 234 2 15.6
2014-Aug-21 11:18 300 2 16.1
2014-Aug-21 11:04 313 1 16.7
2014-Aug-21 10:49 302 3 16.1
2014-Aug-21 10:33 297 2 15.0
2014-Aug-21 10:18 309 2 15.6
2014-Aug-21 10:03 319 2 15.0
2014-Aug-21 09:48 312 0 15.6
2014-Aug-21 09:33 319 0 15.0
2014-Aug-21 09:18 305 3 15.0
2014-Aug-21 09:02 286 2 14.4
2014-Aug-21 08:48 284 2 13.9
2014-Aug-21 08:31 296 0 13.3
2014-Aug-21 08:16 039 0 12.2
2014-Aug-21 08:01 300 0 11.7
2014-Aug-21 07:47 026 0 11.7
2014-Aug-21 07:30 327 0 10.6
2014-Aug-21 07:14 343 1 10.6
2014-Aug-21 07:00 331 1 10.0